When you browse on this site, cookies collect data to enhance your experience and personalize the content and advertising you see.
Visit our Privacy Policy to learn more. By continuing to use the site, you agree to this use of cookies and data.
  • In Portugal
  • List of Countries
  • For 7 days
  • Water Temperature
  • Weather Map
  • Weather Widgets
  • user-avatar
    Login

    Hourly Weather Ischgl

    Today, 17 February, Monday

    Time Temperature Precipitation Wind Pressure Humidity
    00:00 -4°C° 0 mm 3 mps 575 mmHg 52%
    01:00 -4°C° 0 mm 3 mps 574 mmHg 53%
    02:00 -4°C° 0 mm 2 mps 574 mmHg 53%
    03:00 -4°C° 0 mm 2 mps 574 mmHg 53%
    04:00 -2°C° 0 mm 1 mps 573 mmHg 53%
    05:00 -2°C° 0 mm 1 mps 573 mmHg 54%
    06:00 -2°C° 0 mm 1 mps 573 mmHg 55%
    07:00 -2°C° 0 mm 1 mps 574 mmHg 57%
    08:00 -1°C° 0 mm 1 mps 574 mmHg 62%
    09:00 -2°C° 0 mm 2 mps 574 mmHg 68%
    10:00 -1°C° 0 mm 2 mps 575 mmHg 73%
    11:00 -1°C° 0 mm 2 mps 575 mmHg 79%
    12:00 -1°C° 0 mm 2 mps 574 mmHg 85%
    13:00 -1°C° 0 mm 2 mps 574 mmHg 91%
    14:00 +1°C° 0 mm 1 mps 574 mmHg 92%
    15:00 0°C° 0 mm 1 mps 574 mmHg 93%
    16:00 0°C° 0 mm 1 mps 574 mmHg 94%
    17:00 -1°C° 0 mm 1 mps 573 mmHg 94%
    18:00 -2°C° 0 mm 1 mps 573 mmHg 95%
    19:00 -3°C° 0 mm 1 mps 573 mmHg 95%
    20:00 -3°C° 0.2 mm 1 mps 573 mmHg 95%
    21:00 -3°C° 0.2 mm 1 mps 573 mmHg 96%
    22:00 -3°C° 0.2 mm 1 mps 573 mmHg 96%
    23:00 -4°C° 0.6 mm 1 mps 573 mmHg 96%

    Tomorrow, 18 February, Tuesday

    Time Temperature Precipitation Wind Pressure Humidity
    00:00 -4°C° 0.6 mm 1 mps 574 mmHg 96%
    01:00 -4°C° 0.6 mm 1 mps 574 mmHg 97%
    02:00 -7°C° 0.5 mm 2 mps 574 mmHg 96%
    03:00 -7°C° 0.5 mm 2 mps 574 mmHg 96%
    04:00 -7°C° 0.5 mm 2 mps 573 mmHg 96%
    05:00 -9°C° 0.1 mm 2 mps 573 mmHg 96%
    06:00 -9°C° 0.1 mm 1 mps 573 mmHg 96%
    07:00 -10°C° 0.1 mm 1 mps 572 mmHg 96%
    08:00 -9°C° 0 mm 1 mps 573 mmHg 94%
    09:00 -8°C° 0 mm 1 mps 574 mmHg 91%
    10:00 -6°C° 0 mm 1 mps 575 mmHg 89%
    11:00 -6°C° 0 mm 1 mps 575 mmHg 88%
    12:00 -6°C° 0 mm 1 mps 575 mmHg 87%
    13:00 -4°C° 0 mm 1 mps 575 mmHg 86%
    14:00 -4°C° 0 mm 1 mps 575 mmHg 85%
    15:00 -4°C° 0 mm 1 mps 574 mmHg 84%
    16:00 -4°C° 0 mm 1 mps 574 mmHg 83%
    17:00 -7°C° 0 mm 1 mps 573 mmHg 86%
    18:00 -8°C° 0 mm 1 mps 573 mmHg 90%
    19:00 -10°C° 0 mm 1 mps 572 mmHg 93%
    20:00 -10°C° 0 mm 1 mps 572 mmHg 93%
    21:00 -11°C° 0 mm 1 mps 572 mmHg 93%
    22:00 -11°C° 0 mm 1 mps 572 mmHg 93%
    23:00 -11°C° 0 mm 1 mps 571 mmHg 93%

    Day after tomorrow, 19 February, Wednesday

    Time Temperature Precipitation Wind Pressure Humidity
    00:00 -11°C° 0 mm 1 mps 571 mmHg 92%
    01:00 -12°C° 0 mm 1 mps 571 mmHg 92%
    02:00 -12°C° 0 mm 1 mps 570 mmHg 92%
    03:00 -12°C° 0 mm 1 mps 570 mmHg 92%
    04:00 -12°C° 0 mm 1 mps 569 mmHg 93%
    05:00 -12°C° 0 mm 1 mps 569 mmHg 92%
    06:00 -12°C° 0 mm 1 mps 569 mmHg 92%
    07:00 -12°C° 0 mm 1 mps 569 mmHg 92%
    08:00 -11°C° 0 mm 1 mps 570 mmHg 86%
    09:00 -9°C° 0 mm 1 mps 570 mmHg 81%
    10:00 -8°C° 0 mm 1 mps 571 mmHg 76%
    11:00 -7°C° 0 mm 1 mps 571 mmHg 74%
    12:00 -7°C° 0 mm 2 mps 571 mmHg 73%
    13:00 -6°C° 0 mm 2 mps 571 mmHg 72%
    14:00 -7°C° 0.6 mm 2 mps 571 mmHg 76%
    15:00 -8°C° 0.6 mm 3 mps 571 mmHg 80%
    16:00 -9°C° 0.6 mm 3 mps 570 mmHg 84%
    17:00 -9°C° 0.8 mm 2 mps 570 mmHg 87%
    18:00 -10°C° 0.8 mm 2 mps 570 mmHg 90%
    19:00 -12°C° 0.8 mm 2 mps 570 mmHg 93%
    20:00 -12°C° 0.6 mm 2 mps 571 mmHg 93%
    21:00 -10°C° 0.6 mm 1 mps 571 mmHg 93%
    22:00 -11°C° 0.6 mm 1 mps 571 mmHg 94%
    23:00 -11°C° 0.1 mm 1 mps 570 mmHg 94%

    20 February, Thursday

    Time Temperature Precipitation Wind Pressure Humidity
    00:00 -12°C° 0.1 mm 1 mps 570 mmHg 94%
    01:00 -13°C° 0.1 mm 1 mps 569 mmHg 94%
    02:00 -13°C° 0 mm 1 mps 569 mmHg 90%
    03:00 -13°C° 0 mm 1 mps 569 mmHg 86%
    04:00 -13°C° 0 mm 1 mps 569 mmHg 82%
    05:00 -13°C° 0 mm 1 mps 569 mmHg 74%
    06:00 -12°C° 0 mm 1 mps 569 mmHg 66%
    07:00 -12°C° 0 mm 1 mps 569 mmHg 58%
    08:00 -10°C° 0 mm 1 mps 570 mmHg 58%
    09:00 -8°C° 0 mm 1 mps 571 mmHg 57%
    10:00 -6°C° 0 mm 1 mps 572 mmHg 56%
    11:00 -4°C° 0 mm 1 mps 573 mmHg 61%
    12:00 -3°C° 0 mm 1 mps 573 mmHg 66%
    13:00 -2°C° 0 mm 1 mps 573 mmHg 70%
    14:00 -2°C° 0 mm 1 mps 573 mmHg 72%
    15:00 -1°C° 0 mm 1 mps 573 mmHg 74%
    16:00 -1°C° 0 mm 1 mps 573 mmHg 76%
    17:00 -3°C° 0 mm 1 mps 572 mmHg 74%
    18:00 -4°C° 0 mm 1 mps 572 mmHg 72%
    19:00 -7°C° 0 mm 1 mps 571 mmHg 70%
    20:00 -7°C° 0 mm 1 mps 571 mmHg 67%
    21:00 -7°C° 0 mm 1 mps 571 mmHg 64%
    22:00 -7°C° 0 mm 1 mps 572 mmHg 61%
    23:00 -7°C° 0 mm 1 mps 572 mmHg 60%

    21 February, Friday

    Time Temperature Precipitation Wind Pressure Humidity
    00:00 -8°C° 0 mm 1 mps 572 mmHg 60%
    01:00 -8°C° 0 mm 1 mps 572 mmHg 59%
    02:00 -9°C° 0 mm 1 mps 571 mmHg 63%
    03:00 -9°C° 0 mm 1 mps 571 mmHg 68%
    04:00 -10°C° 0 mm 1 mps 571 mmHg 72%
    05:00 -10°C° 0 mm 1 mps 571 mmHg 76%
    06:00 -10°C° 0 mm 1 mps 572 mmHg 81%
    07:00 -10°C° 0 mm 1 mps 572 mmHg 85%
    14:00 -6°C° 0 mm 2 mps 575 mmHg 80%
    15:00 -3°C° 0 mm 1 mps 576 mmHg 85%
    16:00 -4°C° 0 mm 1 mps 576 mmHg 84%
    17:00 -6°C° 0 mm 1 mps 576 mmHg 84%
    18:00 -8°C° 0 mm 1 mps 575 mmHg 84%
    19:00 -10°C° 0 mm 1 mps 574 mmHg 85%
    20:00 -10°C° 0 mm 1 mps 575 mmHg 76%
    21:00 -10°C° 0 mm 1 mps 575 mmHg 68%
    22:00 -9°C° 0 mm 1 mps 575 mmHg 59%
    23:00 -9°C° 0 mm 1 mps 575 mmHg 53%

    22 February, Saturday

    Time Temperature Precipitation Wind Pressure Humidity
    00:00 -9°C° 0 mm 1 mps 576 mmHg 46%
    01:00 -10°C° 0 mm 2 mps 576 mmHg 39%
    02:00 -8°C° 0 mm 1 mps 576 mmHg 37%
    03:00 -8°C° 0 mm 1 mps 576 mmHg 34%
    04:00 -8°C° 0 mm 1 mps 576 mmHg 31%
    05:00 -8°C° 0 mm 1 mps 576 mmHg 30%
    06:00 -7°C° 0 mm 1 mps 576 mmHg 29%
    07:00 -7°C° 0 mm 1 mps 576 mmHg 29%
    08:00 -4°C° 0 mm 1 mps 577 mmHg 37%
    09:00 -2°C° 0 mm 1 mps 578 mmHg 46%
    10:00 0°C° 0 mm 1 mps 579 mmHg 55%
    11:00 0°C° 0 mm 1 mps 579 mmHg 64%
    12:00 +1°C° 0 mm 1 mps 579 mmHg 73%
    13:00 +1°C° 0 mm 1 mps 579 mmHg 82%
    14:00 +1°C° 0 mm 1 mps 579 mmHg 78%
    15:00 +1°C° 0 mm 1 mps 579 mmHg 73%
    16:00 +1°C° 0 mm 1 mps 579 mmHg 69%
    17:00 0°C° 0 mm 1 mps 578 mmHg 64%
    18:00 -1°C° 0 mm 1 mps 578 mmHg 58%
    19:00 -4°C° 0 mm 2 mps 578 mmHg 52%
    20:00 -5°C° 0 mm 2 mps 578 mmHg 59%
    21:00 -5°C° 0 mm 2 mps 578 mmHg 65%
    22:00 -5°C° 0 mm 2 mps 578 mmHg 71%
    23:00 -4°C° 0.1 mm 2 mps 579 mmHg 78%
    Show more